| time (UTC) | temp F | wind direction | speed MPH | gust MPH | rain 1hr in | rain 24hr in | rain mn in | humidity % | barometer mb |
| 20260906134653 | 64 | 29 | 13.0 | 16.0 | 0.00 | 0.00 | 0.00 | 88 | 1022.5 |
| 20260906134152 | 63 | 29 | 13.0 | 16.0 | 0.00 | 0.00 | 0.00 | 85 | 1022.4 |
| 20260906133648 | 64 | 29 | 13.0 | 16.0 | 0.00 | 0.00 | 0.00 | 87 | 1022.5 |
| 20260906133143 | 64 | 29 | 13.0 | 16.0 | 0.00 | 0.00 | 0.00 | 92 | 1022.4 |
| 20260906132639 | 64 | 29 | 13.0 | 16.0 | 0.00 | 0.00 | 0.00 | 93 | 1022.3 |
| 20260906132134 | 63 | 29 | 13.0 | 16.0 | 0.00 | 0.00 | 0.00 | 92 | 1022.2 |
| 20260906131630 | 62 | 29 | 13.0 | 16.0 | 0.00 | 0.00 | 0.00 | 92 | 1022.3 |
| 20260906131125 | 63 | 29 | 13.0 | 16.0 | 0.00 | 0.00 | 0.00 | 93 | 1022.2 |
| 20260906130620 | 63 | 29 | 13.0 | 16.0 | 0.00 | 0.00 | 0.00 | 93 | 1022.2 |
| 20260906130115 | 62 | 29 | 13.0 | 16.0 | 0.00 | 0.00 | 0.00 | 92 | 1022.2 |
| 20260906125613 | 62 | 29 | 13.0 | 16.0 | 0.00 | 0.00 | 0.00 | 94 | 1022.2 |
| 20260906125112 | 62 | 29 | 13.0 | 16.0 | 0.00 | 0.00 | 0.00 | 94 | 1022.2 |
| 20260906124607 | 62 | 29 | 13.0 | 16.0 | 0.00 | 0.00 | 0.00 | 94 | 1022.2 |
| 20260906124102 | 62 | 29 | 13.0 | 16.0 | 0.00 | 0.00 | 0.00 | 94 | 1022.2 |
| 20260906123601 | 61 | 29 | 13.0 | 16.0 | 0.00 | 0.00 | 0.00 | 94 | 1022.1 |
| 20260906123057 | 60 | 29 | 13.0 | 16.0 | 0.00 | 0.00 | 0.00 | 94 | 1022.1 |
| 20260906122555 | 60 | 29 | 13.0 | 16.0 | 0.00 | 0.00 | 0.00 | 94 | 1021.9 |
| 20260906122052 | 60 | 29 | 13.0 | 16.0 | 0.00 | 0.00 | 0.00 | 95 | 1021.8 |
| 20260906121548 | 60 | 29 | 13.0 | 16.0 | 0.00 | 0.00 | 0.00 | 95 | 1021.8 |
| 20260906121044 | 60 | 29 | 13.0 | 16.0 | 0.00 | 0.00 | 0.00 | 96 | 1021.8 |
| 20260906120539 | 60 | 29 | 13.0 | 16.0 | 0.00 | 0.00 | 0.00 | 96 | 1021.7 |
| 20260906120037 | 60 | 29 | 13.0 | 16.0 | 0.00 | 0.00 | 0.00 | 97 | 1021.8 |
| 20260906115536 | 60 | 29 | 13.0 | 16.0 | 0.00 | 0.00 | 0.00 | 97 | 1021.7 |
| 20260906115031 | 60 | 29 | 13.0 | 16.0 | 0.00 | 0.00 | 0.00 | 98 | 1021.6 |
| 20260906114525 | 60 | 29 | 13.0 | 16.0 | 0.00 | 0.00 | 0.00 | 98 | 1021.8 |
| 20260906114021 | 60 | 29 | 13.0 | 16.0 | 0.00 | 0.00 | 0.00 | 99 | 1021.6 |
| 20260906113520 | 60 | 29 | 13.0 | 16.0 | 0.00 | 0.00 | 0.00 | 99 | 1021.7 |
| 20260906113016 | 60 | 29 | 13.0 | 16.0 | 0.00 | 0.00 | 0.00 | 99 | 1021.3 |
| 20260906112510 | 60 | 29 | 13.0 | 16.0 | 0.00 | 0.00 | 0.00 | 99 | 1021.6 |
| 20260906112007 | 59 | 29 | 13.0 | 16.0 | 0.00 | 0.00 | 0.00 | 99 | 1021.4 |
| 20260906111506 | 59 | 29 | 13.0 | 16.0 | 0.00 | 0.00 | 0.00 | 99 | 1021.4 |
| 20260906111001 | 59 | 29 | 13.0 | 16.0 | 0.00 | 0.00 | 0.00 | 99 | 1021.3 |
| 20260906110456 | 59 | 29 | 13.0 | 16.0 | 0.00 | 0.00 | 0.00 | 99 | 1021.3 |
| 20260906105955 | 59 | 29 | 13.0 | 16.0 | 0.00 | 0.00 | 0.00 | 98 | 1021.1 |
| 20260906105451 | 59 | 29 | 13.0 | 16.0 | 0.00 | 0.00 | 0.00 | 98 | 1021.0 |
| 20260906104947 | 59 | 29 | 13.0 | 16.0 | 0.00 | 0.00 | 0.00 | 98 | 1020.9 |
| 20260906104445 | 59 | 29 | 13.0 | 16.0 | 0.00 | 0.00 | 0.00 | 98 | 1020.7 |
| 20260906103944 | 59 | 29 | 13.0 | 16.0 | 0.00 | 0.00 | 0.00 | 99 | 1020.7 |
| 20260906103443 | 59 | 29 | 13.0 | 16.0 | 0.00 | 0.00 | 0.00 | 99 | 1020.6 |
| 20260906102938 | 59 | 29 | 13.0 | 16.0 | 0.00 | 0.00 | 0.00 | 99 | 1020.6 |
| 20260906102433 | 59 | 29 | 13.0 | 16.0 | 0.00 | 0.00 | 0.00 | 99 | 1020.6 |
| 20260906101933 | 59 | 29 | 13.0 | 16.0 | 0.00 | 0.00 | 0.00 | 99 | 1020.6 |
| 20260906101429 | 59 | 29 | 13.0 | 16.0 | 0.00 | 0.00 | 0.00 | 99 | 1020.4 |
| 20260906100924 | 59 | 29 | 13.0 | 16.0 | 0.00 | 0.00 | 0.00 | 98 | 1020.5 |
| 20260906100423 | 59 | 29 | 13.0 | 16.0 | 0.00 | 0.00 | 0.00 | 98 | 1020.4 |
| 20260906095918 | 59 | 29 | 13.0 | 16.0 | 0.00 | 0.00 | 0.00 | 98 | 1020.4 |
| 20260906095414 | 58 | 29 | 13.0 | 16.0 | 0.00 | 0.00 | 0.00 | 98 | 1020.3 |
| 20260906094908 | 59 | 29 | 13.0 | 16.0 | 0.00 | 0.00 | 0.00 | 98 | 1020.1 |
| 20260906094403 | 59 | 29 | 13.0 | 16.0 | 0.00 | 0.00 | 0.00 | 98 | 1020.1 |
| 20260906093859 | 59 | 29 | 13.0 | 16.0 | 0.00 | 0.00 | 0.00 | 98 | 1020.2 |
| 20260906093355 | 59 | 29 | 13.0 | 16.0 | 0.00 | 0.00 | 0.00 | 98 | 1020.1 |
| 20260906092855 | 59 | 29 | 13.0 | 16.0 | 0.00 | 0.00 | 0.00 | 98 | 1020.1 |
| 20260906092349 | 59 | 29 | 13.0 | 16.0 | 0.00 | 0.00 | 0.00 | 98 | 1020.1 |
| 20260906091845 | 59 | 29 | 13.0 | 16.0 | 0.00 | 0.00 | 0.00 | 98 | 1020.1 |
| 20260906091340 | 59 | 29 | 13.0 | 16.0 | 0.00 | 0.00 | 0.00 | 98 | 1020.0 |
| 20260906090832 | 59 | 29 | 13.0 | 16.0 | 0.00 | 0.00 | 0.00 | 99 | 1020.0 |
| 20260906090330 | 59 | 29 | 13.0 | 16.0 | 0.00 | 0.00 | 0.00 | 99 | 1020.0 |
| 20260906085824 | 59 | 29 | 13.0 | 16.0 | 0.00 | 0.00 | 0.00 | 99 | 1020.0 |
| 20260906085323 | 59 | 29 | 13.0 | 16.0 | 0.00 | 0.00 | 0.00 | 98 | 1020.0 |
| 20260906084818 | 60 | 29 | 13.0 | 16.0 | 0.00 | 0.00 | 0.00 | 98 | 1019.8 |
| 20260906084318 | 60 | 29 | 13.0 | 16.0 | 0.00 | 0.00 | 0.00 | 98 | 1019.7 |
| 20260906083813 | 60 | 29 | 13.0 | 16.0 | 0.00 | 0.00 | 0.00 | 99 | 1019.8 |
| 20260906083308 | 60 | 29 | 13.0 | 16.0 | 0.00 | 0.00 | 0.00 | 99 | 1019.8 |
| 20260906082803 | 60 | 29 | 13.0 | 16.0 | 0.00 | 0.00 | 0.00 | 99 | 1019.8 |
| 20260906082258 | 60 | 29 | 13.0 | 16.0 | 0.00 | 0.00 | 0.00 | 99 | 1019.9 |
| 20260906081754 | 60 | 29 | 13.0 | 16.0 | 0.00 | 0.00 | 0.00 | 99 | 1019.7 |
| 20260906081249 | 60 | 29 | 13.0 | 16.0 | 0.00 | 0.00 | 0.00 | 99 | 1019.7 |
| 20260906080745 | 60 | 29 | 13.0 | 16.0 | 0.00 | 0.00 | 0.00 | 99 | 1019.7 |
| 20260906080242 | 60 | 29 | 13.0 | 16.0 | 0.00 | 0.00 | 0.00 | 99 | 1019.7 |
| 20260906075741 | 60 | 29 | 13.0 | 16.0 | 0.00 | 0.00 | 0.00 | 99 | 1019.6 |
| 20260906075236 | 61 | 29 | 13.0 | 16.0 | 0.00 | 0.00 | 0.00 | 99 | 1019.5 |
| 20260906074731 | 61 | 29 | 13.0 | 16.0 | 0.00 | 0.00 | 0.00 | 99 | 1019.3 |
| 20260906074230 | 61 | 29 | 13.0 | 16.0 | 0.00 | 0.00 | 0.00 | 99 | 1019.5 |
| 20260906073724 | 62 | 29 | 13.0 | 16.0 | 0.00 | 0.00 | 0.00 | 99 | 1019.6 |
| 20260906073219 | 62 | 29 | 13.0 | 16.0 | 0.00 | 0.00 | 0.00 | 99 | 1019.7 |
| 20260906072715 | 62 | 29 | 13.0 | 16.0 | 0.00 | 0.00 | 0.00 | 99 | 1019.7 |
| 20260906072210 | 62 | 29 | 13.0 | 16.0 | 0.00 | 0.00 | 0.00 | 98 | 1019.6 |
| 20260906071707 | 62 | 29 | 13.0 | 16.0 | 0.00 | 0.00 | 0.00 | 98 | 1019.8 |
| 20260906071206 | 62 | 29 | 13.0 | 16.0 | 0.02 | 0.00 | 0.00 | 98 | 1019.8 |
| 20260906070703 | 62 | 29 | 13.0 | 16.0 | 0.02 | 0.00 | 0.00 | 98 | 1019.7 |
| 20260906070158 | 62 | 29 | 13.0 | 16.0 | 0.00 | 0.00 | 0.00 | 98 | 1019.6 |
| 20260906065658 | 62 | 29 | 13.0 | 16.0 | 0.00 | 0.00 | 0.00 | 98 | 1019.5 |
| 20260906065153 | 62 | 29 | 13.0 | 16.0 | 0.00 | 0.00 | 0.00 | 98 | 1019.6 |
| 20260906064649 | 62 | 29 | 13.0 | 16.0 | 0.00 | 0.00 | 0.00 | 99 | 1019.6 |
| 20260906064144 | 62 | 29 | 13.0 | 16.0 | 0.00 | 0.00 | 0.00 | 98 | 1019.6 |
| 20260906063639 | 63 | 29 | 13.0 | 16.0 | 0.00 | 0.00 | 0.00 | 98 | 1019.7 |
| 20260906063135 | 62 | 29 | 13.0 | 16.0 | 0.00 | 0.00 | 0.00 | 98 | 1019.8 |
| 20260906062631 | 63 | 29 | 13.0 | 16.0 | 0.00 | 0.00 | 0.00 | 98 | 1019.7 |
| 20260906062129 | 62 | 29 | 13.0 | 16.0 | 0.00 | 0.00 | 0.00 | 98 | 1019.8 |
| 20260906061625 | 63 | 29 | 13.0 | 16.0 | 0.00 | 0.00 | 0.00 | 98 | 1019.8 |
| 20260906061125 | 62 | 29 | 13.0 | 16.0 | 0.00 | 0.00 | 0.00 | 98 | 1019.8 |
| 20260906060622 | 63 | 29 | 13.0 | 16.0 | 0.00 | 0.00 | 0.00 | 98 | 1019.9 |
| 20260906060119 | 63 | 29 | 13.0 | 16.0 | 0.00 | 0.00 | 0.00 | 98 | 1019.8 |
| 20260906055614 | 63 | 29 | 13.0 | 16.0 | 0.00 | 0.00 | 0.00 | 98 | 1019.7 |
| 20260906055109 | 63 | 29 | 13.0 | 16.0 | 0.00 | 0.00 | 0.00 | 98 | 1019.8 |
| 20260906054604 | 62 | 29 | 13.0 | 16.0 | 0.00 | 0.00 | 0.00 | 98 | 1019.8 |
| 20260906054059 | 62 | 29 | 13.0 | 16.0 | 0.00 | 0.00 | 0.00 | 98 | 1019.9 |
| 20260906053555 | 63 | 29 | 13.0 | 16.0 | 0.00 | 0.00 | 0.00 | 98 | 1020.0 |
| 20260906053051 | 62 | 29 | 13.0 | 16.0 | 0.00 | 0.00 | 0.00 | 98 | 1019.9 |
| 20260906052546 | 62 | 29 | 13.0 | 16.0 | 0.00 | 0.00 | 0.00 | 98 | 1020.0 |
| 20260906052043 | 62 | 29 | 13.0 | 16.0 | 0.00 | 0.00 | 0.00 | 98 | 1019.8 |
| 20260906051538 | 62 | 29 | 13.0 | 16.0 | 0.00 | 0.00 | 0.00 | 98 | 1019.9 |
| 20260906051034 | 62 | 29 | 13.0 | 16.0 | 0.00 | 0.00 | 0.00 | 98 | 1019.7 |
| 20260906050529 | 62 | 29 | 13.0 | 16.0 | 0.00 | 0.00 | 0.00 | 97 | 1019.9 |
| 20260906050024 | 62 | 29 | 13.0 | 16.0 | 0.00 | 0.00 | 0.00 | 97 | 1019.7 |
| 20260906045522 | 63 | 29 | 13.0 | 16.0 | 0.00 | 0.00 | 0.00 | 97 | 1019.9 |
| 20260906045018 | 63 | 29 | 13.0 | 16.0 | 0.00 | 0.00 | 0.00 | 97 | 1019.8 |
| 20260906044513 | 63 | 29 | 13.0 | 16.0 | 0.00 | 0.00 | 0.00 | 97 | 1019.7 |
| 20260906044009 | 63 | 29 | 13.0 | 16.0 | 0.00 | 0.00 | 0.00 | 97 | 1019.9 |
| 20260906043504 | 63 | 29 | 13.0 | 16.0 | 0.00 | 0.00 | 0.00 | 97 | 1019.8 |
| 20260906043000 | 63 | 29 | 13.0 | 16.0 | 0.00 | 0.00 | 0.00 | 97 | 1019.9 |
| 20260906042459 | 63 | 29 | 13.0 | 16.0 | 0.00 | 0.00 | 0.00 | 97 | 1019.8 |
| 20260906041959 | 63 | 29 | 13.0 | 16.0 | 0.00 | 0.00 | 0.00 | 97 | 1019.9 |
| 20260906041455 | 63 | 29 | 13.0 | 16.0 | 0.00 | 0.00 | 0.00 | 97 | 1019.8 |
| 20260906040955 | 64 | 29 | 13.0 | 16.0 | 0.00 | 0.00 | 0.00 | 97 | 1019.8 |
| 20260906040450 | 64 | 29 | 13.0 | 16.0 | 0.00 | 0.00 | 0.00 | 96 | 1019.7 |
| 20260906035945 | 64 | 29 | 13.0 | 16.0 | 0.00 | 0.00 | 0.00 | 96 | 1019.8 |
| 20260906035441 | 64 | 29 | 13.0 | 16.0 | 0.00 | 0.00 | 0.00 | 96 | 1019.7 |
| 20260906034936 | 64 | 29 | 13.0 | 16.0 | 0.00 | 0.00 | 0.00 | 95 | 1019.5 |
| 20260906034430 | 64 | 29 | 13.0 | 16.0 | 0.00 | 0.00 | 0.00 | 95 | 1019.7 |
| 20260906033926 | 64 | 29 | 13.0 | 16.0 | 0.00 | 0.00 | 0.00 | 95 | 1019.6 |
| 20260906033421 | 64 | 29 | 13.0 | 16.0 | 0.00 | 0.00 | 0.00 | 95 | 1019.5 |
| 20260906032916 | 64 | 29 | 13.0 | 16.0 | 0.00 | 0.00 | 0.00 | 94 | 1019.4 |
| 20260906032412 | 64 | 29 | 13.0 | 16.0 | 0.00 | 0.00 | 0.00 | 94 | 1019.7 |
| 20260906031906 | 65 | 29 | 13.0 | 16.0 | 0.00 | 0.00 | 0.00 | 93 | 1019.6 |
| 20260906031402 | 65 | 29 | 13.0 | 16.0 | 0.00 | 0.00 | 0.00 | 93 | 1019.4 |
| 20260906030857 | 65 | 29 | 13.0 | 16.0 | 0.00 | 0.00 | 0.00 | 93 | 1019.5 |
| 20260906030352 | 65 | 29 | 13.0 | 16.0 | 0.00 | 0.00 | 0.00 | 93 | 1019.2 |
| 20260906025847 | 65 | 29 | 13.0 | 16.0 | 0.00 | 0.00 | 0.00 | 92 | 1019.5 |
| 20260906025341 | 65 | 29 | 13.0 | 16.0 | 0.00 | 0.00 | 0.00 | 91 | 1019.5 |
| 20260906024840 | 65 | 29 | 13.0 | 16.0 | 0.00 | 0.00 | 0.00 | 91 | 1019.5 |
| 20260906024339 | 65 | 29 | 13.0 | 16.0 | 0.00 | 0.00 | 0.00 | 91 | 1019.6 |
| 20260906023835 | 65 | 29 | 13.0 | 16.0 | 0.00 | 0.00 | 0.00 | 91 | 1019.4 |
| 20260906023331 | 65 | 29 | 13.0 | 16.0 | 0.00 | 0.00 | 0.00 | 91 | 1019.6 |
| 20260906022826 | 65 | 29 | 13.0 | 16.0 | 0.00 | 0.00 | 0.00 | 91 | 1019.3 |
| 20260906022321 | 65 | 29 | 13.0 | 16.0 | 0.00 | 0.00 | 0.00 | 91 | 1019.3 |
| 20260906021817 | 65 | 29 | 13.0 | 16.0 | 0.00 | 0.00 | 0.00 | 92 | 1019.4 |
| 20260906021315 | 65 | 29 | 13.0 | 16.0 | 0.00 | 0.00 | 0.00 | 91 | 1019.3 |
| 20260906020816 | 65 | 29 | 13.0 | 16.0 | 0.00 | 0.00 | 0.00 | 90 | 1019.4 |
| 20260906020315 | 65 | 29 | 13.0 | 16.0 | 0.00 | 0.00 | 0.00 | 90 | 1019.3 |
| 20260906015810 | 65 | 29 | 13.0 | 16.0 | 0.00 | 0.00 | 0.00 | 89 | 1019.3 |
| 20260906015309 | 65 | 29 | 13.0 | 16.0 | 0.00 | 0.00 | 0.00 | 89 | 1019.2 |
| 20260906014808 | 65 | 29 | 13.0 | 16.0 | 0.00 | 0.00 | 0.00 | 89 | 1019.2 |
| 20260906014305 | 65 | 29 | 13.0 | 16.0 | 0.00 | 0.00 | 0.00 | 89 | 1019.0 |
| 20260906013801 | 65 | 29 | 13.0 | 16.0 | 0.00 | 0.00 | 0.00 | 90 | 1019.1 |
| 20260906013300 | 65 | 29 | 13.0 | 16.0 | 0.00 | 0.00 | 0.00 | 90 | 1018.9 |
| 20260906012756 | 65 | 29 | 13.0 | 16.0 | 0.00 | 0.00 | 0.00 | 90 | 1018.9 |
| 20260906012251 | 65 | 29 | 13.0 | 16.0 | 0.00 | 0.00 | 0.00 | 89 | 1019.0 |
| 20260906011746 | 65 | 29 | 13.0 | 16.0 | 0.00 | 0.00 | 0.00 | 89 | 1019.0 |
| 20260906011246 | 65 | 29 | 13.0 | 16.0 | 0.00 | 0.00 | 0.00 | 88 | 1018.9 |
| 20260906010741 | 65 | 29 | 13.0 | 16.0 | 0.00 | 0.00 | 0.00 | 88 | 1019.0 |
| 20260906010238 | 66 | 29 | 13.0 | 16.0 | 0.00 | 0.00 | 0.00 | 88 | 1018.8 |
| 20260906005733 | 66 | 29 | 13.0 | 16.0 | 0.00 | 0.00 | 0.00 | 87 | 1018.8 |
| 20260906005231 | 66 | 29 | 13.0 | 16.0 | 0.00 | 0.00 | 0.00 | 87 | 1018.8 |
| 20260906004726 | 66 | 29 | 13.0 | 16.0 | 0.00 | 0.00 | 0.00 | 86 | 1018.6 |
| 20260906004220 | 67 | 29 | 13.0 | 16.0 | 0.00 | 0.00 | 0.00 | 86 | 1018.7 |
| 20260906003715 | 67 | 29 | 13.0 | 16.0 | 0.00 | 0.00 | 0.00 | 85 | 1018.6 |
| 20260906003211 | 67 | 29 | 13.0 | 16.0 | 0.00 | 0.00 | 0.00 | 85 | 1018.6 |
| 20260906002705 | 67 | 29 | 13.0 | 16.0 | 0.00 | 0.00 | 0.00 | 84 | 1018.6 |
| 20260906002200 | 67 | 29 | 13.0 | 16.0 | 0.00 | 0.00 | 0.00 | 84 | 1018.3 |
| 20260906001655 | 67 | 29 | 13.0 | 16.0 | 0.00 | 0.00 | 0.00 | 84 | 1018.3 |
| 20260906001155 | 67 | 29 | 13.0 | 16.0 | 0.00 | 0.00 | 0.00 | 84 | 1018.3 |
| 20260906000651 | 67 | 29 | 13.0 | 16.0 | 0.00 | 0.00 | 0.00 | 84 | 1018.4 |
| 20260906000146 | 67 | 29 | 13.0 | 16.0 | 0.00 | 0.00 | 0.00 | 82 | 1018.4 |
| 20260905235645 | 68 | 29 | 13.0 | 16.0 | 0.00 | 0.00 | 0.00 | 82 | 1018.4 |
| 20260905235140 | 68 | 29 | 13.0 | 16.0 | 0.00 | 0.00 | 0.00 | 81 | 1018.2 |
| 20260905234635 | 68 | 29 | 13.0 | 16.0 | 0.00 | 0.00 | 0.00 | 81 | 1018.1 |
| 20260905234132 | 68 | 29 | 13.0 | 16.0 | 0.00 | 0.00 | 0.00 | 81 | 1018.1 |
| 20260905233632 | 69 | 29 | 13.0 | 16.0 | 0.00 | 0.00 | 0.00 | 81 | 1018.2 |
| 20260905233125 | 69 | 29 | 13.0 | 16.0 | 0.00 | 0.00 | 0.00 | 81 | 1018.0 |
| 20260905232621 | 69 | 29 | 13.0 | 16.0 | 0.00 | 0.00 | 0.00 | 81 | 1017.9 |
| 20260905232117 | 70 | 29 | 13.0 | 16.0 | 0.00 | 0.00 | 0.00 | 81 | 1017.9 |
| 20260905231617 | 70 | 29 | 13.0 | 16.0 | 0.00 | 0.00 | 0.00 | 79 | 1017.9 |
| 20260905231113 | 70 | 29 | 13.0 | 16.0 | 0.00 | 0.00 | 0.00 | 82 | 1018.0 |
| 20260905230609 | 71 | 29 | 13.0 | 16.0 | 0.00 | 0.00 | 0.00 | 80 | 1017.9 |
| 20260905230106 | 71 | 29 | 13.0 | 16.0 | 0.00 | 0.00 | 0.00 | 81 | 1017.9 |
| 20260905225600 | 71 | 29 | 13.0 | 16.0 | 0.00 | 0.00 | 0.00 | 81 | 1018.0 |
| 20260905225055 | 71 | 29 | 13.0 | 16.0 | 0.00 | 0.00 | 0.00 | 81 | 1017.8 |
| 20260905224549 | 71 | 29 | 13.0 | 16.0 | 0.00 | 0.00 | 0.00 | 79 | 1017.6 |
| 20260905224049 | 71 | 29 | 13.0 | 16.0 | 0.00 | 0.00 | 0.00 | 80 | 1017.8 |
| 20260905223547 | 70 | 29 | 13.0 | 16.0 | 0.00 | 0.00 | 0.00 | 81 | 1017.6 |
| 20260905223043 | 70 | 29 | 13.0 | 16.0 | 0.00 | 0.00 | 0.00 | 81 | 1017.8 |
| 20260905222542 | 70 | 29 | 13.0 | 16.0 | 0.00 | 0.00 | 0.00 | 80 | 1017.7 |
| 20260905222038 | 70 | 29 | 13.0 | 16.0 | 0.00 | 0.00 | 0.00 | 80 | 1017.6 |
| 20260905221534 | 70 | 29 | 13.0 | 16.0 | 0.00 | 0.00 | 0.00 | 81 | 1017.5 |
| 20260905221030 | 70 | 29 | 13.0 | 16.0 | 0.00 | 0.00 | 0.00 | 80 | 1017.7 |
| 20260905220525 | 71 | 29 | 13.0 | 16.0 | 0.00 | 0.00 | 0.00 | 78 | 1017.3 |
| 20260905220021 | 71 | 29 | 13.0 | 16.0 | 0.00 | 0.00 | 0.00 | 79 | 1017.4 |
| 20260905215516 | 71 | 29 | 13.0 | 16.0 | 0.00 | 0.00 | 0.00 | 76 | 1017.4 |
| 20260905215012 | 73 | 29 | 13.0 | 16.0 | 0.00 | 0.00 | 0.00 | 73 | 1017.5 |
| 20260905214508 | 73 | 29 | 13.0 | 16.0 | 0.00 | 0.00 | 0.00 | 72 | 1017.5 |
| 20260905214007 | 73 | 29 | 13.0 | 16.0 | 0.00 | 0.00 | 0.00 | 72 | 1017.4 |
| 20260905213503 | 73 | 29 | 13.0 | 16.0 | 0.00 | 0.00 | 0.00 | 73 | 1017.5 |
| 20260905213003 | 73 | 29 | 13.0 | 16.0 | 0.00 | 0.00 | 0.00 | 70 | 1017.5 |
| 20260905212458 | 73 | 29 | 13.0 | 16.0 | 0.00 | 0.00 | 0.00 | 68 | 1017.4 |
| 20260905211957 | 74 | 29 | 13.0 | 16.0 | 0.00 | 0.00 | 0.00 | 69 | 1017.2 |
| 20260905211453 | 74 | 29 | 13.0 | 16.0 | 0.00 | 0.00 | 0.00 | 68 | 1017.2 |
| 20260905210949 | 76 | 29 | 13.0 | 16.0 | 0.00 | 0.00 | 0.00 | 66 | 1017.1 |
| 20260905210445 | 77 | 29 | 13.0 | 16.0 | 0.00 | 0.00 | 0.00 | 64 | 1017.1 |
| 20260905205944 | 76 | 29 | 13.0 | 16.0 | 0.00 | 0.00 | 0.00 | 66 | 1017.2 |
| 20260905205439 | 73 | 29 | 13.0 | 16.0 | 0.00 | 0.00 | 0.00 | 70 | 1017.1 |
| 20260905204937 | 73 | 29 | 13.0 | 16.0 | 0.00 | 0.00 | 0.00 | 67 | 1017.0 |
| 20260905204433 | 74 | 29 | 13.0 | 16.0 | 0.00 | 0.00 | 0.00 | 69 | 1017.0 |
| 20260905203932 | 74 | 29 | 13.0 | 16.0 | 0.00 | 0.00 | 0.00 | 67 | 1016.9 |
| 20260905203428 | 74 | 29 | 13.0 | 16.0 | 0.00 | 0.00 | 0.00 | 67 | 1016.9 |
| 20260905202923 | 73 | 29 | 13.0 | 16.0 | 0.00 | 0.00 | 0.00 | 66 | 1016.9 |
| 20260905202419 | 74 | 29 | 13.0 | 16.0 | 0.00 | 0.00 | 0.00 | 66 | 1016.8 |
| 20260905201914 | 74 | 29 | 13.0 | 16.0 | 0.00 | 0.00 | 0.00 | 64 | 1017.1 |
| 20260905201409 | 76 | 29 | 13.0 | 16.0 | 0.00 | 0.00 | 0.00 | 62 | 1016.9 |
| 20260905200904 | 78 | 29 | 13.0 | 16.0 | 0.00 | 0.00 | 0.00 | 59 | 1016.9 |
| 20260905200400 | 79 | 29 | 13.0 | 16.0 | 0.00 | 0.00 | 0.00 | 62 | 1017.0 |
| 20260905195857 | 78 | 29 | 13.0 | 16.0 | 0.00 | 0.00 | 0.00 | 62 | 1017.0 |
| 20260905195353 | 76 | 29 | 13.0 | 16.0 | 0.00 | 0.00 | 0.00 | 66 | 1016.9 |
| 20260905194849 | 75 | 29 | 13.0 | 16.0 | 0.00 | 0.00 | 0.00 | 67 | 1016.9 |
| 20260905194348 | 76 | 29 | 13.0 | 16.0 | 0.00 | 0.00 | 0.00 | 63 | 1016.8 |
| 20260905193847 | 77 | 29 | 13.0 | 16.0 | 0.00 | 0.00 | 0.00 | 61 | 1017.0 |
| 20260905193342 | 78 | 29 | 13.0 | 16.0 | 0.00 | 0.00 | 0.00 | 63 | 1016.9 |
| 20260905192838 | 74 | 29 | 13.0 | 16.0 | 0.00 | 0.00 | 0.00 | 68 | 1016.9 |
| 20260905192333 | 75 | 29 | 13.0 | 16.0 | 0.00 | 0.00 | 0.00 | 64 | 1016.9 |
| 20260905191833 | 78 | 29 | 13.0 | 16.0 | 0.00 | 0.00 | 0.00 | 66 | 1016.9 |
| 20260905191332 | 74 | 29 | 13.0 | 16.0 | 0.00 | 0.00 | 0.00 | 71 | 1017.0 |
| 20260905190830 | 73 | 29 | 13.0 | 16.0 | 0.00 | 0.00 | 0.00 | 67 | 1017.1 |
| 20260905190325 | 75 | 29 | 13.0 | 16.0 | 0.00 | 0.00 | 0.00 | 66 | 1017.0 |
| 20260905185823 | 77 | 29 | 13.0 | 16.0 | 0.00 | 0.00 | 0.00 | 62 | 1017.1 |
| 20260905185319 | 80 | 29 | 13.0 | 16.0 | 0.00 | 0.00 | 0.00 | 58 | 1016.9 |
| 20260905184812 | 78 | 29 | 13.0 | 16.0 | 0.00 | 0.00 | 0.00 | 63 | 1017.0 |
| 20260905184311 | 74 | 29 | 13.0 | 16.0 | 0.00 | 0.00 | 0.00 | 66 | 1017.0 |
| 20260905183810 | 74 | 29 | 13.0 | 16.0 | 0.00 | 0.00 | 0.00 | 68 | 1017.0 |
| 20260905183306 | 77 | 29 | 13.0 | 16.0 | 0.00 | 0.00 | 0.00 | 62 | 1017.0 |
| 20260905182806 | 77 | 29 | 13.0 | 16.0 | 0.00 | 0.00 | 0.00 | 59 | 1016.9 |
| 20260905182306 | 78 | 29 | 13.0 | 16.0 | 0.00 | 0.00 | 0.00 | 61 | 1017.0 |
| 20260905181801 | 76 | 29 | 13.0 | 16.0 | 0.00 | 0.00 | 0.00 | 63 | 1017.1 |
| 20260905181300 | 80 | 29 | 13.0 | 16.0 | 0.00 | 0.00 | 0.00 | 57 | 1016.9 |
| 20260905180754 | 77 | 29 | 13.0 | 16.0 | 0.00 | 0.00 | 0.00 | 60 | 1017.1 |
| 20260905180249 | 78 | 29 | 13.0 | 16.0 | 0.00 | 0.00 | 0.00 | 59 | 1017.2 |
| 20260905175744 | 79 | 29 | 13.0 | 16.0 | 0.00 | 0.00 | 0.00 | 61 | 1017.3 |
| 20260905175239 | 80 | 29 | 13.0 | 16.0 | 0.00 | 0.00 | 0.00 | 63 | 1017.3 |
| 20260905174734 | 78 | 29 | 13.0 | 16.0 | 0.00 | 0.00 | 0.00 | 60 | 1017.2 |
| 20260905174229 | 78 | 29 | 13.0 | 16.0 | 0.00 | 0.00 | 0.00 | 61 | 1017.3 |
| 20260905173720 | 77 | 29 | 13.0 | 16.0 | 0.00 | 0.00 | 0.00 | 60 | 1017.2 |
| 20260905173215 | 78 | 29 | 13.0 | 16.0 | 0.00 | 0.00 | 0.00 | 60 | 1017.3 |
| 20260905172714 | 79 | 29 | 13.0 | 16.0 | 0.00 | 0.00 | 0.00 | 62 | 1017.3 |
| 20260905172209 | 79 | 29 | 13.0 | 16.0 | 0.00 | 0.00 | 0.00 | 60 | 1017.3 |
| 20260905171705 | 77 | 29 | 13.0 | 16.0 | 0.00 | 0.00 | 0.00 | 58 | 1017.4 |
| 20260905171200 | 76 | 29 | 13.0 | 16.0 | 0.00 | 0.00 | 0.00 | 62 | 1017.5 |
| 20260905170658 | 78 | 29 | 13.0 | 16.0 | 0.00 | 0.00 | 0.00 | 62 | 1017.5 |
| 20260905170152 | 78 | 29 | 13.0 | 16.0 | 0.00 | 0.00 | 0.00 | 66 | 1017.6 |
| 20260905165652 | 77 | 29 | 13.0 | 16.0 | 0.00 | 0.00 | 0.00 | 63 | 1017.5 |
| 20260905165147 | 78 | 29 | 13.0 | 16.0 | 0.00 | 0.00 | 0.00 | 63 | 1017.4 |
| 20260905164642 | 76 | 29 | 13.0 | 16.0 | 0.00 | 0.00 | 0.00 | 64 | 1017.5 |
| 20260905164141 | 75 | 29 | 13.0 | 16.0 | 0.00 | 0.00 | 0.00 | 68 | 1017.4 |
| 20260905163637 | 74 | 29 | 13.0 | 16.0 | 0.00 | 0.00 | 0.00 | 68 | 1017.6 |
| 20260905163134 | 73 | 29 | 13.0 | 16.0 | 0.00 | 0.00 | 0.00 | 70 | 1017.4 |
| 20260905162630 | 73 | 29 | 13.0 | 16.0 | 0.00 | 0.00 | 0.00 | 69 | 1017.5 |
| 20260905162129 | 75 | 29 | 13.0 | 16.0 | 0.00 | 0.00 | 0.00 | 68 | 1017.5 |
| 20260905161628 | 76 | 29 | 13.0 | 16.0 | 0.00 | 0.00 | 0.00 | 64 | 1017.4 |
| 20260905161126 | 75 | 29 | 13.0 | 16.0 | 0.00 | 0.00 | 0.00 | 66 | 1017.6 |
| 20260905160621 | 74 | 29 | 13.0 | 16.0 | 0.00 | 0.00 | 0.00 | 67 | 1017.6 |
| 20260905160120 | 74 | 29 | 13.0 | 16.0 | 0.00 | 0.00 | 0.00 | 66 | 1017.6 |
| 20260905155615 | 75 | 29 | 13.0 | 16.0 | 0.00 | 0.00 | 0.00 | 66 | 1017.4 |
| 20260905155114 | 74 | 29 | 13.0 | 16.0 | 0.00 | 0.00 | 0.00 | 67 | 1017.4 |
| 20260905154608 | 74 | 29 | 13.0 | 16.0 | 0.00 | 0.00 | 0.00 | 68 | 1017.5 |
| 20260905154104 | 74 | 29 | 13.0 | 16.0 | 0.00 | 0.00 | 0.00 | 70 | 1017.3 |
| 20260905153559 | 73 | 29 | 13.0 | 16.0 | 0.00 | 0.00 | 0.00 | 70 | 1017.5 |
| 20260905153054 | 72 | 29 | 13.0 | 16.0 | 0.00 | 0.00 | 0.00 | 70 | 1017.6 |
| 20260905152549 | 72 | 29 | 13.0 | 16.0 | 0.00 | 0.00 | 0.00 | 73 | 1017.7 |
| 20260905152044 | 73 | 29 | 13.0 | 16.0 | 0.00 | 0.00 | 0.00 | 76 | 1017.6 |
| 20260905151539 | 74 | 29 | 13.0 | 16.0 | 0.00 | 0.00 | 0.00 | 75 | 1017.6 |
| 20260905151035 | 74 | 29 | 13.0 | 16.0 | 0.00 | 0.00 | 0.00 | 69 | 1017.8 |
| 20260905150530 | 72 | 29 | 13.0 | 16.0 | 0.00 | 0.00 | 0.00 | 72 | 1017.6 |
| 20260905150027 | 72 | 29 | 13.0 | 16.0 | 0.00 | 0.00 | 0.00 | 71 | 1017.6 |
| 20260905145521 | 73 | 29 | 13.0 | 16.0 | 0.00 | 0.00 | 0.00 | 73 | 1017.6 |
| 20260905145021 | 72 | 29 | 13.0 | 16.0 | 0.00 | 0.00 | 0.00 | 79 | 1017.5 |
| 20260905144516 | 71 | 29 | 13.0 | 16.0 | 0.00 | 0.00 | 0.00 | 76 | 1017.7 |
| 20260905144015 | 71 | 29 | 13.0 | 16.0 | 0.00 | 0.00 | 0.00 | 78 | 1017.4 |
| 20260905143514 | 70 | 29 | 13.0 | 16.0 | 0.00 | 0.00 | 0.00 | 78 | 1017.5 |
| 20260905143009 | 71 | 29 | 13.0 | 16.0 | 0.00 | 0.00 | 0.00 | 80 | 1017.5 |
| 20260905142508 | 70 | 29 | 13.0 | 16.0 | 0.00 | 0.00 | 0.00 | 80 | 1017.4 |
| 20260905142004 | 71 | 29 | 13.0 | 16.0 | 0.00 | 0.00 | 0.00 | 81 | 1017.3 |
| 20260905141503 | 70 | 29 | 13.0 | 16.0 | 0.00 | 0.00 | 0.00 | 84 | 1017.4 |
| 20260905141000 | 69 | 29 | 13.0 | 16.0 | 0.00 | 0.00 | 0.00 | 84 | 1017.4 |
| 20260905140454 | 68 | 29 | 13.0 | 16.0 | 0.00 | 0.00 | 0.00 | 84 | 1017.6 |
| 20260905135953 | 68 | 29 | 13.0 | 16.0 | 0.00 | 0.00 | 0.00 | 85 | 1017.5 |
| 20260905135449 | 68 | 29 | 13.0 | 16.0 | 0.00 | 0.00 | 0.00 | 84 | 1017.4 |
| 20260905134944 | 68 | 29 | 13.0 | 16.0 | 0.00 | 0.00 | 0.00 | 85 | 1017.5 |